DW6733 Weather Reports


time (UTC)temp
F
wind
direction
speed
knots
gust
knots
rain 1hr
in
rain 24hr
in
rain mn
in
humidity
%
barometer
mb
20260508200005 67 248 4.3 11.3 0.00 0.00 0.00 43 1009.7
20260508195605 67 249 3.5 11.3 0.00 0.00 0.00 43 1009.8
20260508194905 68 230 5.2 13.0 0.00 0.00 0.00 44 1009.8
20260508194226 69 234 6.1 13.0 0.00 0.00 0.00 42 1009.8
20260508193505 69 249 6.1 13.9 0.00 0.00 0.00 42 1010.0
20260508192805 70 237 7.0 15.6 0.00 0.00 0.00 40 1009.9
20260508192126 70 227 6.1 14.8 0.00 0.00 0.00 42 1010.0
20260508191405 70 239 6.1 14.8 0.00 0.00 0.00 45 1010.1
20260508190706 69 244 7.0 13.9 0.00 0.00 0.00 46 1010.3
20260508190005 68 253 7.0 13.9 0.00 0.00 0.00 43 1010.6
20260508185606 69 249 7.0 13.0 0.00 0.00 0.00 43 1010.7
20260508184905 69 232 7.8 20.0 0.00 0.00 0.00 43 1010.7
20260508184205 69 242 7.0 20.0 0.00 0.00 0.00 43 1010.8
20260508183505 68 263 5.2 12.2 0.00 0.00 0.00 46 1010.8
20260508182806 67 260 5.2 12.2 0.00 0.00 0.00 52 1011.0
20260508182106 66 255 5.2 11.3 0.00 0.00 0.00 48 1011.2
20260508181405 66 241 5.2 14.8 0.00 0.00 0.00 49 1011.2
20260508180705 66 232 6.1 14.8 0.00 0.00 0.00 47 1011.2
20260508180027 66 231 5.2 13.0 0.00 0.00 0.00 47 1011.3
20260508175605 66 236 4.3 13.0 0.00 0.00 0.00 48 1011.4
20260508174905 66 238 4.3 14.8 0.00 0.00 0.00 47 1011.5
20260508174206 66 232 7.0 14.8 0.00 0.00 0.00 48 1011.6
20260508173505 66 233 6.1 14.8 0.00 0.00 0.00 48 1011.8
20260508172805 66 238 6.1 13.0 0.00 0.00 0.00 46 1011.8
20260508172106 66 241 7.0 17.4 0.00 0.00 0.00 47 1011.9
20260508171405 66 232 7.8 16.5 0.00 0.00 0.00 46 1012.0
20260508170704 67 244 6.1 14.8 0.00 0.00 0.00 48 1012.3
20260508170026 66 248 7.8 14.8 0.00 0.00 0.00 47 1012.4
20260508165605 66 246 7.0 14.8 0.00 0.00 0.00 50 1012.5
20260508164904 66 243 7.0 12.2 0.00 0.00 0.00 48 1012.6
20260508164205 66 240 7.8 15.6 0.00 0.00 0.00 50 1012.6
20260508163505 66 239 7.8 15.6 0.00 0.00 0.00 49 1012.7
20260508162804 66 241 7.8 17.4 0.00 0.00 0.00 49 1012.7
20260508162105 66 242 7.8 17.4 0.00 0.00 0.00 49 1012.8
20260508161404 66 250 7.0 14.8 0.00 0.00 0.00 49 1013.0
20260508160705 65 247 6.1 13.0 0.00 0.00 0.00 53 1013.1
20260508160004 65 246 7.0 15.6 0.00 0.00 0.00 51 1013.0
20260508155605 64 239 7.0 15.6 0.00 0.00 0.00 51 1013.1
20260508154904 64 251 7.0 15.6 0.00 0.00 0.00 52 1013.2
20260508154205 63 250 6.1 15.6 0.00 0.00 0.00 52 1013.2
20260508153504 63 257 7.0 15.6 0.00 0.00 0.00 50 1013.3
20260508152804 64 258 6.1 13.0 0.00 0.00 0.00 51 1013.2
20260508152125 63 257 5.2 13.0 0.00 0.00 0.00 54 1013.2
20260508151405 63 246 7.0 13.0 0.00 0.00 0.00 52 1013.2
20260508150705 63 250 7.0 13.0 0.00 0.00 0.00 50 1013.4
20260508150006 63 241 7.0 14.8 0.00 0.00 0.00 51 1013.5
20260508145604 63 236 7.8 14.8 0.00 0.00 0.00 50 1013.5
20260508144904 62 242 7.0 13.0 0.00 0.00 0.00 52 1013.5
20260508144204 62 240 7.0 13.0 0.00 0.00 0.00 50 1013.7
20260508143504 62 247 7.0 14.8 0.00 0.00 0.00 53 1013.8
20260508142825 61 252 7.0 13.9 0.00 0.00 0.00 52 1013.8
20260508142126 61 248 7.8 15.6 0.00 0.00 0.00 53 1013.8
20260508141404 60 255 6.1 15.6 0.00 0.00 0.00 55 1013.9
20260508140704 59 242 6.1 13.9 0.00 0.00 0.00 56 1013.9
20260508140004 59 236 6.1 13.9 0.00 0.00 0.00 59 1013.9
20260508135626 58 232 6.1 13.9 0.00 0.00 0.00 57 1013.9
20260508134925 58 238 6.1 11.3 0.00 0.00 0.00 58 1014.0
20260508134205 57 251 5.2 12.2 0.00 0.00 0.00 59 1014.0
20260508133504 56 249 5.2 12.2 0.00 0.00 0.00 60 1014.1
20260508132804 56 239 5.2 11.3 0.00 0.00 0.00 61 1014.0
20260508132104 55 238 4.3 9.6 0.00 0.00 0.00 62 1013.9
20260508131405 55 233 6.1 13.0 0.00 0.00 0.00 62 1013.9
20260508130704 54 234 5.2 11.3 0.00 0.00 0.00 62 1013.7
20260508130004 54 230 4.3 9.6 0.00 0.00 0.00 66 1013.8
20260508125604 53 230 4.3 13.9 0.00 0.00 0.00 67 1013.8
20260508124925 52 229 4.3 13.9 0.00 0.00 0.00 67 1013.8
20260508124226 52 232 4.3 7.8 0.00 0.00 0.00 69 1013.9
20260508123504 51 227 3.5 7.8 0.00 0.00 0.00 70 1013.9
20260508122804 50 234 3.5 8.7 0.00 0.00 0.00 70 1013.9
20260508122126 50 233 2.6 7.8 0.00 0.00 0.00 71 1014.0
20260508121426 49 229 3.5 7.8 0.00 0.00 0.00 71 1013.9
20260508120704 49 226 3.5 7.0 0.00 0.00 0.00 71 1013.9
20260508120004 49 226 2.6 6.1 0.00 0.00 0.00 72 1013.8
20260508115605 48 220 2.6 6.1 0.00 0.00 0.00 73 1013.8
20260508114904 48 218 1.7 4.3 0.00 0.00 0.00 73 1013.7
20260508114204 47 226 0.9 4.3 0.00 0.00 0.00 74 1013.6
20260508113504 47 228 0.9 4.3 0.00 0.00 0.00 74 1013.6
20260508111404 46 226 1.7 4.3 0.00 0.00 0.00 75 1013.5
20260508110724 46 234 1.7 3.5 0.00 0.00 0.00 75 1013.4
20260508110004 46 230 0.9 3.5 0.00 0.00 0.00 76 1013.3
20260508105625 45 229 0.9 3.5 0.00 0.00 0.00 76 1013.3
20260508104925 45 232 1.7 4.3 0.00 0.00 0.00 76 1013.3
20260508104225 45 229 1.7 5.2 0.00 0.00 0.00 77 1013.3
20260508103504 44 227 1.7 5.2 0.00 0.00 0.00 77 1013.2
20260508102804 44 233 1.7 3.5 0.00 0.00 0.00 78 1013.3
20260508102125 44 228 1.7 3.5 0.00 0.00 0.00 79 1013.3
20260508101425 44 225 1.7 4.3 0.00 0.00 0.00 79 1013.3
20260508100703 43 232 0.9 3.5 0.00 0.00 0.00 79 1013.3
20260508100004 43 241 0.0 2.6 0.00 0.00 0.00 79 1013.4
20260508095604 43 241 0.0 1.7 0.00 0.00 0.00 79 1013.4
20260508094904 43 241 0.0 1.7 0.00 0.00 0.00 79 1013.4
20260508094203 43 241 0.9 2.6 0.00 0.00 0.00 79 1013.5
20260508093503 43 235 1.7 4.3 0.00 0.00 0.00 79 1013.4
20260508092803 43 219 1.7 4.3 0.00 0.00 0.00 79 1013.4
20260508092104 43 221 1.7 4.3 0.00 0.00 0.00 80 1013.4
20260508091403 42 220 1.7 4.3 0.00 0.00 0.00 80 1013.5
20260508090703 42 212 0.9 4.3 0.00 0.00 0.00 80 1013.5
20260508090004 42 219 0.9 2.6 0.00 0.00 0.00 80 1013.4
20260508085603 42 235 0.0 2.6 0.00 0.00 0.00 79 1013.5
20260508084903 43 238 0.9 2.6 0.00 0.00 0.00 79 1013.5
20260508084203 43 238 0.0 1.7 0.00 0.00 0.00 79 1013.6
20260508083503 43 238 0.0 0.9 0.00 0.00 0.00 77 1013.5
20260508082803 44 238 0.0 0.9 0.00 0.00 0.00 77 1013.3
20260508082103 44 238 0.0 2.6 0.00 0.00 0.00 76 1013.4
20260508081404 44 238 0.0 1.7 0.00 0.00 0.00 75 1013.4
20260508080703 45 238 0.0 2.6 0.00 0.00 0.00 75 1013.4
20260508080003 45 238 0.0 2.6 0.00 0.00 0.00 74 1013.3
20260508075603 45 238 0.0 0.9 0.00 0.00 0.00 74 1013.3
20260508074903 45 225 0.9 3.5 0.00 0.00 0.00 72 1013.2
20260508074203 45 219 0.0 3.5 0.00 0.00 0.00 72 1013.4
20260508073524 45 202 0.9 1.7 0.00 0.00 0.00 72 1013.4
20260508072803 46 202 0.9 1.7 0.00 0.00 0.00 73 1013.4
20260508072104 46 217 0.9 4.3 0.00 0.00 0.00 72 1013.2
20260508071425 46 233 0.9 3.5 0.00 0.00 0.00 71 1013.3
20260508070703 46 234 1.7 2.6 0.00 0.00 0.00 71 1013.3
20260508070003 46 232 0.9 5.2 0.00 0.00 0.00 70 1013.5
20260508065603 46 238 0.9 5.2 0.00 0.00 0.00 70 1013.6
20260508064903 46 246 0.0 2.6 0.00 0.00 0.00 69 1013.6
20260508064203 46 231 1.7 3.5 0.00 0.00 0.00 69 1013.7
20260508063503 46 227 2.6 4.3 0.00 0.00 0.00 69 1013.8
20260508062824 46 228 2.6 5.2 0.00 0.00 0.00 70 1013.8
20260508062103 47 225 2.6 5.2 0.00 0.00 0.00 69 1013.7
20260508061403 47 220 2.6 5.2 0.00 0.00 0.00 70 1013.7
20260508060706 47 226 2.6 7.8 0.00 0.00 0.00 70 1013.6
20260508060027 47 228 2.6 6.1 0.00 0.00 0.00 70 1013.7
20260508055607 47 231 2.6 5.2 0.00 0.00 0.00 70 1013.8
20260508054907 47 229 2.6 6.1 0.00 0.00 0.00 69 1013.8
20260508054206 47 228 1.7 4.3 0.00 0.00 0.00 70 1013.7
20260508053507 47 221 1.7 3.5 0.00 0.00 0.00 70 1013.7
20260508052827 47 226 1.7 7.0 0.00 0.00 0.00 70 1013.7
20260508052107 47 230 1.7 6.1 0.00 0.00 0.00 70 1013.8
20260508051406 47 223 1.7 6.1 0.00 0.00 0.00 71 1013.8
20260508050706 46 223 2.6 7.0 0.00 0.00 0.00 71 1013.7
20260508050029 46 223 1.7 6.1 0.00 0.00 0.00 72 1013.7
20260508045627 46 216 1.7 4.3 0.00 0.00 0.00 73 1013.7
20260508044928 46 207 0.0 2.6 0.00 0.00 0.00 73 1013.6
20260508044227 46 209 0.0 2.6 0.00 0.00 0.00 72 1013.8
20260508043506 46 211 0.9 2.6 0.00 0.00 0.00 72 1013.7
20260508042827 46 205 0.9 4.3 0.00 0.00 0.00 72 1013.7
20260508042107 46 209 0.9 3.5 0.00 0.00 0.00 73 1013.7
20260508041407 46 201 0.9 3.5 0.00 0.00 0.00 74 1013.6
20260508040706 46 198 0.9 1.7 0.00 0.00 0.00 75 1013.6
20260508040028 46 216 0.9 2.6 0.00 0.00 0.00 76 1013.7
20260508035627 46 215 0.9 2.6 0.00 0.00 0.00 76 1013.7
20260508034906 45 217 0.9 4.3 0.00 0.00 0.00 78 1013.6
20260508034227 45 206 0.9 5.2 0.00 0.00 0.00 79 1013.7
20260508033506 45 203 0.9 4.3 0.00 0.00 0.00 81 1013.7
20260508032806 44 224 0.9 3.5 0.00 0.00 0.00 83 1013.7
20260508032127 44 226 0.0 2.6 0.00 0.00 0.00 84 1013.7
20260508031406 44 0 0.0 0.0 0.00 0.00 0.00 83 1013.6
20260508030727 44 0 0.0 0.0 0.00 0.00 0.00 82 1013.6
20260508030006 44 0 0.0 0.0 0.00 0.00 0.00 81 1013.6
20260508025606 45 0 0.0 0.0 0.00 0.00 0.00 81 1013.7
20260508024906 45 0 0.0 0.0 0.00 0.00 0.00 80 1013.6
20260508024227 45 0 0.0 0.0 0.00 0.00 0.00 77 1013.7
20260508023506 45 0 0.0 0.0 0.00 0.00 0.00 78 1013.6
20260508022806 46 0 0.0 0.0 0.00 0.00 0.00 79 1013.5
20260508022106 46 0 0.0 0.0 0.00 0.00 0.00 78 1013.6
20260508021406 46 0 0.0 0.0 0.00 0.00 0.00 78 1013.6
20260508020728 47 0 0.0 0.0 0.00 0.00 0.00 75 1013.7
20260508020006 47 0 0.0 0.0 0.00 0.00 0.00 73 1013.7
20260508015627 47 0 0.0 0.0 0.00 0.00 0.00 73 1013.7
20260508014907 48 0 0.0 0.0 0.00 0.00 0.00 72 1013.6
20260508014206 48 235 0.9 1.7 0.00 0.00 0.00 71 1013.6
20260508013506 49 235 0.0 1.7 0.00 0.00 0.00 70 1013.6
20260508012807 49 0 0.0 0.0 0.00 0.00 0.00 68 1013.4
20260508012107 50 0 0.0 0.0 0.00 0.00 0.00 67 1013.6
20260508011407 51 0 0.0 0.0 0.00 0.00 0.00 65 1013.6
20260508010706 51 0 0.0 0.0 0.00 0.00 0.00 63 1013.5
20260508010027 52 0 0.0 0.0 0.00 0.00 0.00 61 1013.5
20260508005606 53 235 0.0 0.9 0.00 0.00 0.00 59 1013.5
20260508004928 54 235 0.0 0.9 0.00 0.00 0.00 60 1013.5
20260508004228 55 0 0.0 0.0 0.00 0.00 0.00 58 1013.4
20260508003507 56 0 0.0 0.0 0.00 0.00 0.00 54 1013.3
20260508002806 56 235 0.0 1.7 0.00 0.00 0.00 51 1013.2
20260508002106 58 0 0.0 0.0 0.00 0.00 0.00 50 1013.2
20260508001406 58 235 0.0 1.7 0.00 0.00 0.00 46 1013.1
20260508000706 59 239 0.9 2.6 0.00 0.00 0.00 43 1013.1
20260508000006 59 240 0.9 4.3 0.00 0.00 0.00 44 1013.1
20260507235605 59 237 0.9 4.3 0.00 0.00 0.00 42 1013.1
20260507234906 60 269 1.7 4.3 0.00 0.00 0.00 42 1013.1
20260507234206 60 290 1.7 6.1 0.00 0.00 0.00 40 1013.0
20260507233505 60 289 1.7 6.1 0.00 0.00 0.00 39 1013.0
20260507232826 60 283 1.7 6.1 0.00 0.00 0.00 39 1013.0
20260507232106 60 272 3.5 7.8 0.00 0.00 0.00 37 1013.0
20260507231407 60 272 3.5 7.0 0.00 0.00 0.00 39 1012.9
20260507230706 61 277 2.6 6.1 0.00 0.00 0.00 39 1012.8
20260507230006 61 284 2.6 5.2 0.00 0.00 0.00 37 1012.9
20260507225605 61 298 1.7 5.2 0.00 0.00 0.00 38 1012.9
20260507224906 61 306 0.9 3.5 0.00 0.00 0.00 39 1012.8
20260507224205 61 303 1.7 6.1 0.00 0.00 0.00 39 1012.8
20260507223505 61 311 1.7 7.0 0.00 0.00 0.00 46 1012.9
20260507222805 61 314 2.6 7.0 0.00 0.00 0.00 40 1013.1
20260507222107 61 328 1.7 7.0 0.00 0.00 0.00 42 1013.1
20260507221405 60 302 1.7 5.2 0.00 0.00 0.00 43 1013.2
20260507220705 60 312 1.7 6.1 0.00 0.00 0.00 41 1013.2
20260507220005 60 282 3.5 9.6 0.00 0.00 0.00 41 1013.3
20260507215605 60 276 4.3 9.6 0.00 0.00 0.00 42 1013.3
20260507214905 59 288 4.3 9.6 0.00 0.00 0.00 40 1013.3
20260507214205 59 284 5.2 13.0 0.00 0.00 0.00 40 1013.3
20260507213505 59 314 2.6 6.1 0.00 0.00 0.00 45 1013.3
20260507212805 58 300 3.5 7.8 0.00 0.00 0.00 40 1013.2
20260507212105 58 297 4.3 8.7 0.00 0.00 0.00 43 1013.2
20260507211406 58 291 4.3 11.3 0.00 0.00 0.00 42 1013.3
20260507210705 59 286 3.5 8.7 0.00 0.00 0.00 39 1013.2
20260507210006 60 299 4.3 9.6 0.00 0.00 0.00 40 1013.1
20260507205605 60 291 4.3 9.6 0.00 0.00 0.00 38 1013.1
20260507204905 60 279 4.3 8.7 0.00 0.00 0.00 43 1012.9
20260507204205 60 298 3.5 9.6 0.00 0.00 0.00 39 1013.1
20260507203526 60 325 1.7 7.8 0.00 0.00 0.00 44 1013.0
20260507202805 60 345 2.6 9.6 0.00 0.00 0.00 44 1013.1
20260507202105 59 303 3.5 9.6 0.00 0.00 0.00 43 1013.0
20260507201405 60 295 4.3 8.7 0.00 0.00 0.00 42 1013.0
20260507200705 61 334 2.6 7.8 0.00 0.00 0.00 43 1013.0